When you browse on this site, cookies collect data to enhance your experience and personalize the content and advertising you see.
Visit our Privacy Policy to learn more. By continuing to use the site, you agree to this use of cookies and data.
  • In Österreich
  • Länderverzeichnis
  • Für 7 Tage
  • Wassertemperatur
  • Satellitenkarten
  • Wetterkarte
  • News
  • Widgets
  • user-avatar
    Anmelden

    Stündliche Wetter Ristiina

    Heute, 17 Februar, Sonntag

    Zeit Temperatur Niederschläge Wind Luftdruck Luftfeuchtigkeit
    00:00 -3°C° 0 mm 6 m/S 739 mmHg 78%
    01:00 -3°C° 0 mm 6 m/S 739 mmHg 76%
    02:00 -4°C° 0 mm 6 m/S 739 mmHg 74%
    03:00 -3°C° 0 mm 7 m/S 739 mmHg 72%
    04:00 -3°C° 0 mm 7 m/S 739 mmHg 71%
    05:00 -3°C° 0 mm 7 m/S 739 mmHg 69%
    06:00 -3°C° 0 mm 7 m/S 740 mmHg 69%
    07:00 -4°C° 0 mm 7 m/S 741 mmHg 69%
    08:00 -5°C° 0 mm 8 m/S 741 mmHg 68%
    09:00 -4°C° 0 mm 7 m/S 742 mmHg 68%
    10:00 -3°C° 0 mm 7 m/S 743 mmHg 67%
    11:00 -3°C° 0 mm 7 m/S 744 mmHg 66%
    12:00 -3°C° 0 mm 7 m/S 745 mmHg 64%
    13:00 -3°C° 0 mm 7 m/S 747 mmHg 63%
    14:00 -3°C° 0 mm 6 m/S 748 mmHg 61%
    15:00 -4°C° 0 mm 6 m/S 749 mmHg 64%
    16:00 -5°C° 0 mm 5 m/S 750 mmHg 68%
    17:00 -5°C° 0 mm 4 m/S 751 mmHg 71%
    18:00 -7°C° 0 mm 4 m/S 751 mmHg 75%
    19:00 -6°C° 0 mm 3 m/S 752 mmHg 78%
    20:00 -7°C° 0 mm 3 m/S 753 mmHg 82%
    21:00 -8°C° 0 mm 3 m/S 754 mmHg 85%
    22:00 -7°C° 0 mm 2 m/S 754 mmHg 88%
    23:00 -8°C° 0 mm 2 m/S 755 mmHg 91%

    Morgen, 18 Februar, Montag

    Zeit Temperatur Niederschläge Wind Luftdruck Luftfeuchtigkeit
    00:00 -8°C° 0 mm 2 m/S 755 mmHg 91%
    01:00 -7°C° 0 mm 1 m/S 756 mmHg 91%
    02:00 -8°C° 0 mm 1 m/S 756 mmHg 92%
    03:00 -8°C° 0 mm 1 m/S 756 mmHg 91%
    04:00 -8°C° 0 mm 0 m/S 756 mmHg 90%
    05:00 -8°C° 0 mm 0 m/S 756 mmHg 89%
    06:00 -8°C° 0 mm 1 m/S 756 mmHg 88%
    07:00 -8°C° 0 mm 1 m/S 756 mmHg 87%
    08:00 -9°C° 0 mm 2 m/S 755 mmHg 86%
    09:00 -9°C° 0 mm 3 m/S 755 mmHg 83%
    10:00 -8°C° 0 mm 3 m/S 755 mmHg 80%
    11:00 -8°C° 0 mm 4 m/S 754 mmHg 78%
    12:00 -7°C° 0 mm 4 m/S 754 mmHg 77%
    13:00 -7°C° 0 mm 5 m/S 753 mmHg 77%
    14:00 -6°C° 0 mm 5 m/S 752 mmHg 76%
    15:00 -5°C° 0 mm 5 m/S 751 mmHg 79%
    16:00 -5°C° 0 mm 5 m/S 751 mmHg 81%
    17:00 -5°C° 0 mm 5 m/S 750 mmHg 84%
    18:00 -4°C° 0 mm 5 m/S 749 mmHg 85%
    19:00 -3°C° 0 mm 6 m/S 748 mmHg 86%
    20:00 -2°C° 0 mm 6 m/S 747 mmHg 87%
    21:00 -2°C° 0.1 mm 6 m/S 746 mmHg 88%
    22:00 -1°C° 0.1 mm 6 m/S 746 mmHg 90%
    23:00 -1°C° 0.1 mm 6 m/S 745 mmHg 91%

    übermorgen, 19 Februar, Dienstag

    Zeit Temperatur Niederschläge Wind Luftdruck Luftfeuchtigkeit
    00:00 0°C° 0.1 mm 5 m/S 745 mmHg 91%
    01:00 0°C° 0.1 mm 5 m/S 744 mmHg 92%
    02:00 0°C° 0.1 mm 5 m/S 744 mmHg 92%
    03:00 0°C° 0.1 mm 5 m/S 743 mmHg 93%
    04:00 0°C° 0.1 mm 5 m/S 743 mmHg 93%
    05:00 +1°C° 0.1 mm 4 m/S 743 mmHg 94%
    06:00 0°C° 0 mm 4 m/S 742 mmHg 94%
    07:00 0°C° 0 mm 4 m/S 742 mmHg 94%
    08:00 0°C° 0 mm 4 m/S 741 mmHg 94%
    09:00 0°C° 0 mm 4 m/S 741 mmHg 94%
    10:00 0°C° 0 mm 4 m/S 741 mmHg 94%
    11:00 +1°C° 0 mm 4 m/S 740 mmHg 94%
    12:00 +1°C° 0.3 mm 4 m/S 740 mmHg 94%
    13:00 +1°C° 0.3 mm 4 m/S 739 mmHg 95%
    14:00 0°C° 0.3 mm 5 m/S 739 mmHg 95%
    15:00 0°C° 0.6 mm 4 m/S 738 mmHg 95%
    16:00 0°C° 0.6 mm 4 m/S 737 mmHg 95%
    17:00 0°C° 0.6 mm 4 m/S 737 mmHg 95%
    18:00 0°C° 0.1 mm 4 m/S 736 mmHg 94%
    19:00 0°C° 0.1 mm 4 m/S 736 mmHg 94%
    20:00 0°C° 0.1 mm 4 m/S 736 mmHg 94%
    21:00 0°C° 0 mm 4 m/S 735 mmHg 94%
    22:00 0°C° 0 mm 4 m/S 735 mmHg 94%
    23:00 0°C° 0 mm 4 m/S 735 mmHg 94%

    20 Februar, Mittwoch

    Zeit Temperatur Niederschläge Wind Luftdruck Luftfeuchtigkeit
    00:00 0°C° 0 mm 4 m/S 734 mmHg 94%
    01:00 0°C° 0 mm 4 m/S 734 mmHg 95%
    02:00 0°C° 0 mm 3 m/S 734 mmHg 95%
    03:00 0°C° 0.1 mm 3 m/S 733 mmHg 95%
    04:00 0°C° 0.1 mm 3 m/S 733 mmHg 95%
    05:00 0°C° 0.1 mm 3 m/S 732 mmHg 95%
    06:00 0°C° 0.3 mm 3 m/S 732 mmHg 95%
    07:00 0°C° 0.3 mm 3 m/S 732 mmHg 95%
    08:00 +1°C° 0.3 mm 2 m/S 732 mmHg 95%
    09:00 +1°C° 0.3 mm 2 m/S 732 mmHg 94%
    10:00 0°C° 0.3 mm 3 m/S 732 mmHg 94%
    11:00 0°C° 0.3 mm 3 m/S 733 mmHg 93%
    12:00 0°C° 0 mm 3 m/S 733 mmHg 91%
    13:00 0°C° 0 mm 3 m/S 734 mmHg 90%
    14:00 0°C° 0 mm 4 m/S 735 mmHg 88%
    15:00 -1°C° 0 mm 4 m/S 736 mmHg 86%
    16:00 -2°C° 0 mm 5 m/S 736 mmHg 85%
    17:00 -4°C° 0 mm 6 m/S 737 mmHg 83%
    18:00 -4°C° 0 mm 6 m/S 738 mmHg 82%
    19:00 -5°C° 0 mm 6 m/S 739 mmHg 81%
    20:00 -5°C° 0 mm 5 m/S 740 mmHg 80%
    21:00 -6°C° 0.1 mm 6 m/S 741 mmHg 78%
    22:00 -6°C° 0.1 mm 6 m/S 742 mmHg 77%
    23:00 -8°C° 0.1 mm 6 m/S 743 mmHg 76%

    21 Februar, Donnerstag

    Zeit Temperatur Niederschläge Wind Luftdruck Luftfeuchtigkeit
    00:00 -8°C° 0 mm 6 m/S 744 mmHg 75%
    01:00 -9°C° 0 mm 6 m/S 746 mmHg 74%
    02:00 -9°C° 0 mm 6 m/S 747 mmHg 73%
    03:00 -10°C° 0 mm 5 m/S 748 mmHg 73%
    04:00 -11°C° 0 mm 5 m/S 749 mmHg 73%
    05:00 -11°C° 0 mm 5 m/S 750 mmHg 72%
    06:00 -11°C° 0 mm 4 m/S 751 mmHg 72%
    07:00 -11°C° 0 mm 4 m/S 752 mmHg 71%
    08:00 -11°C° 0 mm 4 m/S 753 mmHg 71%
    09:00 -10°C° 0 mm 3 m/S 753 mmHg 67%
    10:00 -9°C° 0 mm 3 m/S 754 mmHg 64%
    11:00 -9°C° 0 mm 3 m/S 755 mmHg 60%
    12:00 -8°C° 0 mm 3 m/S 755 mmHg 59%
    13:00 -7°C° 0 mm 2 m/S 756 mmHg 58%
    14:00 -6°C° 0 mm 2 m/S 756 mmHg 56%
    15:00 -7°C° 0 mm 2 m/S 756 mmHg 61%
    16:00 -8°C° 0 mm 2 m/S 757 mmHg 66%
    17:00 -7°C° 0 mm 1 m/S 757 mmHg 71%
    18:00 -8°C° 0 mm 1 m/S 758 mmHg 73%
    19:00 -8°C° 0 mm 1 m/S 758 mmHg 75%
    20:00 -8°C° 0 mm 1 m/S 759 mmHg 77%
    21:00 -9°C° 0 mm 1 m/S 759 mmHg 77%
    22:00 -9°C° 0 mm 1 m/S 760 mmHg 78%
    23:00 -9°C° 0 mm 1 m/S 760 mmHg 78%

    22 Februar, Freitag

    Zeit Temperatur Niederschläge Wind Luftdruck Luftfeuchtigkeit
    00:00 -9°C° 0 mm 1 m/S 761 mmHg 78%
    01:00 -9°C° 0 mm 1 m/S 761 mmHg 78%
    02:00 -9°C° 0 mm 1 m/S 762 mmHg 79%
    03:00 -9°C° 0 mm 1 m/S 762 mmHg 78%
    04:00 -10°C° 0 mm 2 m/S 763 mmHg 78%
    05:00 -10°C° 0 mm 2 m/S 763 mmHg 78%
    06:00 -10°C° 0 mm 2 m/S 763 mmHg 78%
    07:00 -10°C° 0 mm 2 m/S 764 mmHg 78%
    08:00 -10°C° 0 mm 2 m/S 764 mmHg 78%
    09:00 -9°C° 0 mm 2 m/S 765 mmHg 78%
    10:00 -8°C° 0 mm 2 m/S 765 mmHg 77%
    11:00 -7°C° 0 mm 2 m/S 766 mmHg 77%
    12:00 -7°C° 0 mm 2 m/S 766 mmHg 77%
    13:00 -8°C° 0 mm 3 m/S 766 mmHg 77%
    14:00 -7°C° 0 mm 3 m/S 767 mmHg 77%
    15:00 -7°C° 0 mm 2 m/S 767 mmHg 80%
    16:00 -7°C° 0 mm 2 m/S 767 mmHg 83%
    17:00 -7°C° 0 mm 1 m/S 768 mmHg 85%
    18:00 -7°C° 0 mm 1 m/S 768 mmHg 88%
    19:00 -8°C° 0 mm 1 m/S 768 mmHg 90%
    20:00 -8°C° 0 mm 0 m/S 768 mmHg 92%
    21:00 -9°C° 0 mm 1 m/S 769 mmHg 92%
    22:00 -9°C° 0 mm 1 m/S 769 mmHg 92%
    23:00 -9°C° 0 mm 1 m/S 769 mmHg 91%
    Mehr zeigen